KF4PPJ Weather Reports


time (UTC)temp
F
wind
direction
speed
knots
gust
knots
rain 1hr
in
rain 24hr
in
rain mn
in
humidity
%
barometer
mb
20260901013258 72 282 2.6 4.3 0.00 0.00 0.00 58 1010.9
20260901012754 72 126 1.7 5.2 0.00 0.00 0.00 57 1011.1
20260901012253 73 171 1.7 2.6 0.00 0.00 0.00 57 1011.1
20260901011749 73 140 0.9 1.7 0.00 0.00 0.00 57 1011.0
20260901011244 73 97 2.6 4.3 0.00 0.00 0.00 57 1011.0
20260901010738 73 330 2.6 4.3 0.00 0.00 0.00 56 1011.0
20260901010233 73 154 1.7 5.2 0.00 0.00 0.00 56 1010.8
20260901005732 74 144 1.7 5.2 0.00 0.00 0.00 55 1010.8
20260901005227 75 11 2.6 4.3 0.00 0.00 0.00 53 1011.0
20260901004727 77 169 2.6 2.6 0.00 0.00 0.00 52 1010.9
20260901004221 77 210 2.6 4.3 0.00 0.00 0.00 51 1011.0
20260901003716 78 226 2.6 5.2 0.00 0.00 0.00 50 1011.0
20260901003216 79 270 2.6 4.3 0.00 0.00 0.00 49 1011.0
20260901002714 79 222 2.6 5.2 0.00 0.00 0.00 48 1010.9
20260901002209 79 146 0.9 5.2 0.00 0.00 0.00 47 1011.1
20260901001705 78 187 0.9 4.3 0.00 0.00 0.00 48 1011.2
20260901001200 78 50 1.7 4.3 0.00 0.00 0.00 48 1011.1
20260901000650 77 197 2.6 2.6 0.00 0.00 0.00 49 1011.2
20260901000145 78 348 3.5 6.1 0.00 0.00 0.00 48 1011.2
20260831235643 79 307 2.6 5.2 0.00 0.00 0.00 47 1011.3
20260831235140 78 150 1.7 2.6 0.00 0.00 0.00 48 1011.3
20260831234638 78 99 2.6 6.1 0.00 0.00 0.00 47 1011.3
20260831234134 78 155 1.7 4.3 0.00 0.00 0.00 47 1011.4
20260831233624 77 140 0.0 1.7 0.00 0.00 0.00 48 1011.3
20260831233120 78 358 1.7 7.0 0.00 0.00 0.00 47 1011.5
20260831232615 77 164 1.7 2.6 0.00 0.00 0.00 48 1011.4
20260831232111 78 184 3.5 5.2 0.00 0.00 0.00 46 1011.5
20260831231607 78 315 3.5 4.3 0.00 0.00 0.00 46 1011.7
20260831231102 78 145 0.0 6.1 0.00 0.00 0.00 45 1011.6
20260831230557 79 352 2.6 6.1 0.00 0.00 0.00 45 1011.6
20260831230051 80 152 2.6 2.6 0.00 0.00 0.00 45 1011.6
20260831225547 78 184 0.9 1.7 0.00 0.00 0.00 46 1011.8
20260831225042 78 114 1.7 4.3 0.00 0.00 0.00 46 1011.8
20260831224537 77 209 1.7 4.3 0.00 0.00 0.00 48 1011.9
20260831224033 76 154 1.7 4.3 0.00 0.00 0.00 49 1012.1
20260831223528 77 135 0.9 2.6 0.00 0.00 0.00 49 1012.1
20260831223024 77 215 2.6 8.7 0.00 0.00 0.00 49 1012.0
20260831222520 77 227 4.3 5.2 0.00 0.00 0.00 49 1012.1
20260831222019 77 110 0.9 4.3 0.00 0.00 0.00 50 1012.2
20260831221515 77 42 2.6 5.2 0.00 0.00 0.00 50 1012.3
20260831221010 77 172 1.7 4.3 0.00 0.00 0.00 50 1012.4
20260831220505 75 160 2.6 5.2 0.00 0.00 0.00 52 1012.5
20260831220001 75 4 4.3 6.1 0.00 0.00 0.00 52 1012.3
20260831215456 75 348 2.6 6.1 0.00 0.00 0.00 53 1012.8
20260831214952 75 213 3.5 5.2 0.00 0.00 0.00 53 1012.5
20260831214449 74 200 3.5 4.3 0.00 0.00 0.00 54 1012.6
20260831213945 74 290 3.5 7.8 0.00 0.00 0.00 54 1012.7
20260831213442 74 208 3.5 4.3 0.00 0.00 0.00 55 1012.8
20260831212941 74 220 2.6 6.1 0.00 0.00 0.00 54 1013.0
20260831212437 74 240 5.2 7.0 0.00 0.00 0.00 53 1013.0
20260831211936 74 170 1.7 5.2 0.00 0.00 0.00 54 1012.9
20260831211432 75 203 3.5 6.1 0.00 0.00 0.00 53 1012.9
20260831210925 75 142 3.5 4.3 0.00 0.00 0.00 53 1012.9
20260831210421 75 212 4.3 7.8 0.00 0.00 0.00 53 1013.0
20260831205916 75 226 1.7 5.2 0.00 0.00 0.00 53 1013.1
20260831205412 74 230 1.7 5.2 0.00 0.00 0.00 54 1013.3
20260831204907 74 193 1.7 4.3 0.00 0.00 0.00 54 1013.1
20260831204406 75 47 1.7 7.0 0.00 0.00 0.00 52 1013.3
20260831203905 75 82 0.9 1.7 0.00 0.00 0.00 53 1013.6
20260831203400 75 190 0.9 2.6 0.00 0.00 0.00 53 1013.6
20260831202858 73 110 0.9 1.7 0.00 0.00 0.00 55 1013.4
20260831202354 72 124 3.5 5.2 0.00 0.00 0.00 56 1013.5
20260831201853 72 349 1.7 5.2 0.00 0.00 0.00 57 1013.5
20260831201352 73 358 6.1 8.7 0.00 0.00 0.00 55 1013.9
20260831200848 73 171 1.7 4.3 0.00 0.00 0.00 56 1013.9
20260831200343 73 342 4.3 8.7 0.00 0.00 0.00 57 1013.9
20260831195838 72 7 4.3 6.1 0.00 0.00 0.00 58 1013.8
20260831195334 72 282 4.3 6.1 0.00 0.00 0.00 58 1013.9
20260831194829 71 158 0.9 6.1 0.00 0.00 0.00 59 1014.1
20260831194324 72 340 3.5 6.1 0.00 0.00 0.00 58 1014.2
20260831193824 72 147 2.6 7.0 0.00 0.00 0.00 59 1014.2
20260831193319 71 176 0.9 7.0 0.00 0.00 0.00 59 1014.3
20260831192814 71 202 0.9 4.3 0.00 0.00 0.00 60 1014.2
20260831192309 71 231 2.6 5.2 0.00 0.00 0.00 61 1014.6
20260831191805 71 18 3.5 6.1 0.00 0.00 0.00 59 1014.4
20260831191301 71 144 3.5 6.1 0.00 0.00 0.00 60 1014.6
20260831190757 71 75 1.7 7.8 0.00 0.00 0.00 59 1014.8
20260831190256 71 93 1.7 4.3 0.00 0.00 0.00 60 1014.7
20260831185751 70 238 2.6 7.8 0.00 0.00 0.00 60 1014.9
20260831185247 70 77 3.5 7.8 0.00 0.00 0.00 61 1014.9
20260831184745 70 321 4.3 11.3 0.00 0.00 0.00 60 1015.3
20260831184242 71 193 4.3 6.1 0.00 0.00 0.00 60 1015.0
20260831183742 70 152 2.6 4.3 0.00 0.00 0.00 60 1014.9
20260831183236 69 239 6.1 11.3 0.00 0.00 0.00 62 1015.0
20260831182735 68 192 4.3 6.1 0.00 0.00 0.00 65 1015.2
20260831182231 68 200 3.5 6.1 0.00 0.00 0.00 64 1015.2
20260831181730 68 202 3.5 5.2 0.00 0.00 0.00 62 1015.4
20260831181226 68 269 3.5 5.2 0.00 0.00 0.00 62 1015.3
20260831180720 69 16 5.2 7.8 0.00 0.00 0.00 60 1015.4
20260831180215 68 160 1.7 4.3 0.00 0.00 0.00 63 1015.4
20260831175714 67 60 2.6 4.3 0.00 0.00 0.00 64 1015.4
20260831175211 67 211 4.3 5.2 0.00 0.00 0.00 63 1015.5
20260831174706 67 144 3.5 4.3 0.00 0.00 0.00 63 1015.5
20260831174201 67 31 4.3 9.6 0.00 0.00 0.00 63 1015.8
20260831173700 67 192 1.7 2.6 0.00 0.00 0.00 64 1015.9
20260831173156 66 158 1.7 7.0 0.00 0.00 0.00 67 1015.9
20260831172655 66 161 4.3 7.0 0.00 0.00 0.00 66 1015.9
20260831172151 65 263 2.6 4.3 0.00 0.00 0.00 68 1015.9
20260831171645 64 111 0.9 5.2 0.00 0.00 0.00 70 1015.6
20260831171143 64 23 7.0 9.6 0.00 0.00 0.00 69 1015.9
20260831170639 64 151 4.3 11.3 0.00 0.00 0.00 69 1015.8
20260831170136 64 216 1.7 7.8 0.00 0.00 0.00 71 1015.9
20260831165631 64 199 0.9 7.0 0.00 0.00 0.00 72 1015.9
20260831165127 64 3 5.2 7.0 0.00 0.00 0.00 72 1016.0
20260831164623 64 101 1.7 2.6 0.00 0.00 0.00 73 1015.9
20260831164119 64 203 1.7 2.6 0.00 0.00 0.00 73 1016.2
20260831163614 63 204 2.6 2.6 0.00 0.00 0.00 75 1016.1
20260831163109 63 200 1.7 7.0 0.00 0.00 0.00 75 1016.1
20260831162608 63 166 0.9 5.2 0.00 0.00 0.00 77 1016.3
20260831162106 63 105 1.7 2.6 0.00 0.00 0.00 76 1016.2
20260831161603 62 151 0.9 5.2 0.00 0.00 0.00 78 1016.6
20260831161059 62 165 2.6 6.1 0.00 0.00 0.00 80 1016.6
20260831160557 61 183 0.0 2.6 0.00 0.00 0.00 82 1016.6
20260831160053 60 166 1.7 6.1 0.00 0.00 0.00 83 1016.6
20260831155547 60 26 3.5 5.2 0.00 0.00 0.00 83 1016.6
20260831155042 60 315 4.3 7.8 0.00 0.00 0.00 84 1016.6
20260831154538 60 75 1.7 2.6 0.00 0.00 0.00 87 1016.8
20260831154033 59 143 0.9 2.6 0.00 0.00 0.00 90 1016.5
20260831153532 58 103 0.9 1.7 0.00 0.00 0.00 92 1016.9
20260831153030 57 151 0.0 0.9 0.00 0.00 0.00 95 1016.7
20260831152525 57 145 0.0 2.6 0.00 0.00 0.00 95 1016.7
20260831152020 57 148 0.0 1.7 0.00 0.00 0.00 95 1017.0
20260831151514 57 157 0.0 0.0 0.00 0.00 0.00 96 1016.8
20260831151014 55 140 0.0 0.0 0.00 0.00 0.00 96 1017.1
20260831150509 55 128 0.0 0.9 0.00 0.00 0.00 96 1016.8
20260831150005 54 148 0.0 0.0 0.00 0.00 0.00 96 1017.2
20260831145459 54 146 0.0 0.0 0.00 0.00 0.00 96 1016.8
20260831144955 54 154 0.0 0.0 0.00 0.00 0.00 96 1016.7
20260831144450 53 152 0.0 0.0 0.00 0.00 0.00 96 1016.8
20260831143946 53 153 0.0 0.0 0.00 0.00 0.00 96 1016.6
20260831143440 53 158 0.0 0.0 0.00 0.00 0.00 96 1016.7
20260831142936 53 153 0.0 0.0 0.00 0.00 0.00 96 1016.8
20260831142432 53 152 0.0 0.0 0.00 0.00 0.00 96 1016.9
20260831141926 53 152 0.0 0.0 0.00 0.00 0.00 96 1016.7
20260831141420 53 152 0.0 0.0 0.00 0.00 0.00 96 1016.9
20260831140915 53 154 0.0 0.0 0.00 0.00 0.00 95 1017.0
20260831140409 53 154 0.0 0.0 0.00 0.00 0.00 95 1017.0
20260831135903 53 151 0.0 0.0 0.00 0.00 0.00 95 1016.9
20260831135403 53 151 0.0 0.0 0.00 0.00 0.00 95 1016.6
20260831134858 53 150 0.0 0.0 0.00 0.00 0.00 95 1016.8
20260831134354 53 152 0.0 0.0 0.00 0.00 0.00 95 1016.7
20260831133854 53 151 0.0 0.0 0.00 0.00 0.00 95 1016.7
20260831133353 53 152 0.0 0.0 0.00 0.00 0.00 95 1016.9
20260831132850 53 152 0.0 0.0 0.00 0.00 0.00 95 1016.7
20260831132344 53 153 0.0 0.0 0.00 0.00 0.00 95 1016.6
20260831131838 53 154 0.0 0.0 0.00 0.00 0.00 94 1016.8
20260831131335 53 154 0.0 0.0 0.00 0.00 0.00 94 1016.7
20260831130835 53 154 0.0 0.0 0.00 0.00 0.00 94 1016.9
20260831130331 53 153 0.0 0.0 0.00 0.00 0.00 94 1016.8
20260831125829 53 150 0.0 0.0 0.00 0.00 0.00 94 1016.8
20260831125325 53 153 0.0 0.0 0.00 0.00 0.00 94 1016.8
20260831124825 53 150 0.0 0.0 0.00 0.00 0.00 94 1017.0
20260831124321 54 152 0.0 0.0 0.00 0.00 0.00 94 1016.9
20260831123821 54 135 0.9 0.9 0.00 0.00 0.00 94 1016.8
20260831123320 54 154 0.0 0.0 0.00 0.00 0.00 93 1016.8
20260831122815 54 154 0.0 0.9 0.00 0.00 0.00 93 1017.1
20260831122311 54 153 0.0 0.0 0.00 0.00 0.00 93 1017.1
20260831121810 54 144 0.0 0.9 0.00 0.00 0.00 93 1017.1
20260831121307 54 153 0.0 0.9 0.00 0.00 0.00 92 1017.0
20260831120802 55 153 0.0 0.0 0.00 0.00 0.00 92 1017.1
20260831120256 55 150 0.0 0.9 0.00 0.00 0.00 92 1017.0
20260831115752 55 150 0.0 0.0 0.00 0.00 0.00 92 1017.1
20260831115248 55 153 0.0 0.0 0.00 0.00 0.00 91 1017.1
20260831114747 56 153 0.0 0.9 0.00 0.00 0.00 92 1017.2
20260831114246 55 2 4.3 6.1 0.00 0.00 0.00 92 1017.3
20260831113742 55 146 0.0 1.7 0.00 0.00 0.00 92 1017.4
20260831113236 55 156 0.0 0.0 0.00 0.00 0.00 91 1017.4
20260831112736 55 143 0.0 0.0 0.00 0.00 0.00 91 1017.6
20260831112231 55 147 0.9 0.9 0.00 0.00 0.00 91 1017.6
20260831111727 55 151 0.9 0.9 0.00 0.00 0.00 91 1017.5
20260831111223 55 159 0.0 0.9 0.00 0.00 0.00 90 1017.6
20260831110718 56 147 0.0 0.0 0.00 0.00 0.00 90 1017.4
20260831110213 56 132 0.0 0.9 0.00 0.00 0.00 90 1017.8
20260831105712 56 137 0.0 0.9 0.00 0.00 0.00 89 1017.6
20260831105208 56 156 0.0 0.9 0.00 0.00 0.00 89 1017.7
20260831104702 56 132 0.9 0.9 0.00 0.00 0.00 88 1017.6
20260831104159 57 132 0.9 0.9 0.00 0.00 0.00 88 1017.7
20260831103654 56 100 0.9 0.9 0.00 0.00 0.00 88 1017.4
20260831103150 56 145 0.0 1.7 0.00 0.00 0.00 89 1017.7
20260831102649 56 167 0.0 4.3 0.00 0.00 0.00 88 1017.5
20260831102144 56 139 0.9 1.7 0.00 0.00 0.00 88 1017.9
20260831101639 56 152 0.0 0.0 0.00 0.00 0.00 87 1017.8
20260831101135 56 158 0.0 0.0 0.00 0.00 0.00 86 1017.9
20260831100631 57 165 0.0 1.7 0.00 0.00 0.00 86 1018.0
20260831100127 57 166 0.0 0.9 0.00 0.00 0.00 85 1017.9
20260831095625 57 144 0.0 0.9 0.00 0.00 0.00 85 1018.2
20260831095120 57 122 1.7 2.6 0.00 0.00 0.00 86 1018.0
20260831094615 57 117 0.0 1.7 0.00 0.00 0.00 87 1018.0
20260831094112 56 148 0.0 2.6 0.00 0.00 0.00 89 1017.9
20260831093607 55 144 0.9 0.9 0.00 0.00 0.00 90 1018.3
20260831093103 55 155 0.0 1.7 0.00 0.00 0.00 91 1018.4
20260831092558 55 152 0.0 0.9 0.00 0.00 0.00 91 1018.2
20260831092054 55 151 0.0 0.9 0.00 0.00 0.00 91 1018.6
20260831091554 55 150 0.0 1.7 0.00 0.00 0.00 91 1018.5
20260831091049 55 161 0.0 0.9 0.00 0.00 0.00 91 1018.5
20260831090544 55 152 0.0 0.0 0.00 0.00 0.00 91 1018.5
20260831090041 55 156 0.0 0.0 0.00 0.00 0.00 91 1018.4
20260831085541 55 152 0.0 0.0 0.00 0.00 0.00 91 1018.6
20260831085036 55 153 0.0 0.0 0.00 0.00 0.00 91 1018.6
20260831084532 55 139 0.0 0.0 0.00 0.00 0.00 92 1018.7
20260831084028 55 152 0.0 0.0 0.00 0.00 0.00 91 1018.5
20260831083523 55 154 0.0 0.0 0.00 0.00 0.00 91 1018.6
20260831083018 55 152 0.0 0.0 0.00 0.00 0.00 91 1018.6
20260831082517 55 149 0.0 0.0 0.00 0.00 0.00 92 1018.6
20260831082013 55 140 0.0 0.0 0.00 0.00 0.00 92 1018.5
20260831081509 54 148 0.0 0.0 0.00 0.00 0.00 92 1018.6
20260831081004 54 149 0.0 0.0 0.00 0.00 0.00 91 1018.6
20260831080458 54 148 0.0 0.0 0.00 0.00 0.00 91 1018.8
20260831075953 54 149 0.0 0.0 0.00 0.00 0.00 91 1018.7
20260831075449 54 153 0.0 0.0 0.00 0.00 0.00 91 1018.9
20260831074944 54 153 0.0 0.0 0.00 0.00 0.00 91 1018.8
20260831074438 55 153 0.0 0.0 0.00 0.00 0.00 90 1019.0
20260831073933 55 153 0.0 0.0 0.00 0.00 0.00 90 1019.0
20260831073432 55 153 0.0 0.0 0.00 0.00 0.00 90 1018.9
20260831072927 55 154 0.0 0.0 0.00 0.00 0.00 90 1019.3
20260831072423 55 154 0.0 0.0 0.00 0.00 0.00 89 1019.1
20260831071919 55 156 0.0 0.0 0.00 0.00 0.00 89 1019.1
20260831071418 55 157 0.0 0.0 0.00 0.00 0.00 88 1019.0
20260831070913 55 150 0.0 0.9 0.00 0.00 0.00 88 1019.0
20260831070412 56 152 0.0 0.0 0.00 0.00 0.00 88 1019.2
20260831065911 56 152 0.0 0.9 0.00 0.00 0.00 87 1019.5
20260831065409 56 160 0.0 0.0 0.00 0.00 0.00 87 1019.5
20260831064904 56 155 0.0 0.9 0.00 0.00 0.00 86 1019.5
20260831064359 57 152 0.0 0.0 0.00 0.00 0.00 86 1019.4
20260831063855 57 153 0.0 0.0 0.00 0.00 0.00 85 1019.5
20260831063350 57 156 0.0 0.0 0.00 0.00 0.00 85 1019.3
20260831062850 57 149 0.0 0.0 0.00 0.00 0.00 84 1019.5
20260831062345 57 161 0.0 0.0 0.00 0.00 0.00 83 1019.6
20260831061843 57 152 0.0 0.0 0.00 0.00 0.00 83 1019.9
20260831061343 57 160 0.0 0.0 0.00 0.00 0.00 81 1019.8
20260831060840 58 165 0.0 0.9 0.00 0.00 0.00 81 1019.7
20260831060339 58 161 0.0 0.0 0.00 0.00 0.00 80 1019.7
20260831055839 59 147 0.0 0.0 0.00 0.00 0.00 79 1019.8
20260831055334 59 146 0.0 0.0 0.00 0.00 0.00 78 1019.8
20260831054830 59 146 0.0 0.9 0.00 0.00 0.00 78 1019.7
20260831054325 60 145 0.9 1.7 0.00 0.00 0.00 77 1019.9
20260831053824 60 135 2.6 2.6 0.00 0.00 0.00 77 1019.9
20260831053322 60 149 0.0 0.9 0.00 0.00 0.00 75 1020.0
20260831052817 61 140 0.9 1.7 0.00 0.00 0.00 74 1020.2
20260831052316 61 127 1.7 2.6 0.00 0.00 0.00 73 1020.4
20260831051814 61 146 0.0 0.9 0.00 0.00 0.00 73 1020.1
20260831051313 61 115 0.0 0.9 0.00 0.00 0.00 73 1020.2
20260831050808 61 150 0.0 0.9 0.00 0.00 0.00 72 1020.3
20260831050302 61 155 2.6 5.2 0.00 0.00 0.00 72 1020.2
20260831045756 61 151 0.9 1.7 0.00 0.00 0.00 71 1019.9
20260831045256 61 140 0.9 1.7 0.00 0.00 0.00 72 1020.3
20260831044751 60 152 0.0 0.9 0.00 0.00 0.00 73 1020.5
20260831044246 61 141 0.0 0.9 0.00 0.00 0.00 72 1020.5
20260831043742 61 132 0.0 0.9 0.00 0.00 0.00 71 1020.5
20260831043236 62 132 0.9 1.7 0.00 0.00 0.00 71 1020.4
20260831042731 62 122 0.0 1.7 0.00 0.00 0.00 70 1020.4
20260831042226 62 148 0.0 2.6 0.00 0.00 0.00 69 1020.3
20260831041721 62 163 0.9 1.7 0.00 0.00 0.00 69 1020.3
20260831041220 62 120 1.7 4.3 0.00 0.00 0.00 69 1020.4
20260831040715 62 137 0.0 1.7 0.00 0.00 0.00 69 1020.5
20260831040215 62 150 0.0 0.9 0.00 0.00 0.00 69 1020.1
20260831035713 62 144 0.0 0.9 0.00 0.00 0.00 68 1020.5
20260831035208 62 154 0.0 0.9 0.00 0.00 0.00 68 1020.3
20260831034707 62 303 3.5 5.2 0.00 0.00 0.00 69 1020.3
20260831034203 61 46 2.6 6.1 0.00 0.00 0.00 71 1020.5
20260831033658 61 162 0.9 0.9 0.00 0.00 0.00 71 1020.2
20260831033157 61 150 0.0 1.7 0.00 0.00 0.00 71 1020.3
20260831032652 61 155 0.0 0.9 0.00 0.00 0.00 72 1020.2
20260831032148 61 149 0.9 1.7 0.00 0.00 0.00 72 1020.2
20260831031647 62 155 0.9 0.9 0.00 0.00 0.00 71 1020.1
20260831031147 62 152 0.9 0.9 0.00 0.00 0.00 72 1020.1
20260831030645 62 147 0.0 0.9 0.00 0.00 0.00 71 1020.0
20260831030145 62 147 0.0 0.9 0.00 0.00 0.00 71 1020.1
20260831025643 62 153 0.0 0.9 0.00 0.00 0.00 71 1020.0
20260831025138 62 150 0.0 0.9 0.00 0.00 0.00 70 1020.2
20260831024635 63 148 0.0 0.9 0.00 0.00 0.00 69 1020.3
20260831024134 63 148 0.0 0.0 0.00 0.00 0.00 69 1020.2
20260831023632 64 148 0.0 0.9 0.00 0.00 0.00 68 1020.2
20260831023131 64 148 0.9 0.9 0.00 0.00 0.00 67 1020.3
20260831022626 64 149 0.0 0.9 0.00 0.00 0.00 67 1020.2
20260831022121 65 148 0.0 1.7 0.00 0.00 0.00 65 1020.5
20260831021620 65 156 0.0 2.6 0.00 0.00 0.00 64 1020.2
20260831021116 65 140 1.7 1.7 0.00 0.00 0.00 64 1020.3
20260831020612 66 156 0.0 0.9 0.00 0.00 0.00 63 1020.6
20260831015557 67 137 0.9 1.7 0.00 0.00 0.00 62 1020.7
20260831015056 68 151 0.0 0.0 0.00 0.00 0.00 60 1020.4
20260831014552 69 147 0.9 1.7 0.00 0.00 0.00 56 1020.7
20260831014048 69 164 0.9 1.7 0.00 0.00 0.00 55 1020.6